EZY817V EGGW-EGPH

Flight info

Callsign EZY817V
Flight time 0h 52m
Altitude 32000
Route OLNEY T420 TNT UN57 POL UN601 RIBEL DCT INPIP
Aircraft A320/M-SDE2E3FGHIJ1RWXYZ/LB1

Departure

Time 2026-04-26 10:29
Airport London Luton Airport (EGGW)

Arrival

Time 2026-04-26 11:21
Airport Edinburgh Airport (EGPH)
Time Latitude Longitude Altitude Speed Heading
2026-04-26 10:16 51.87956 -0.37900 534 ft 0 kts 127°
2026-04-26 10:23 51.87965 -0.37918 534 ft 4 kts 131°
2026-04-26 10:23 51.87984 -0.37946 534 ft 4 kts 155°
2026-04-26 10:23 51.88006 -0.37952 534 ft 3 kts 214°
2026-04-26 10:23 51.88009 -0.37949 534 ft 0 kts 218°
2026-04-26 10:25 51.88001 -0.37958 534 ft 7 kts 214°
2026-04-26 10:25 51.87902 -0.38018 534 ft 23 kts 175°
2026-04-26 10:25 51.87778 -0.37835 534 ft 26 kts 115°
2026-04-26 10:26 51.87704 -0.37573 534 ft 26 kts 114°
2026-04-26 10:26 51.87568 -0.37460 536 ft 23 kts 189°
2026-04-26 10:26 51.87485 -0.37661 536 ft 23 kts 255°
2026-04-26 10:26 51.87441 -0.37917 536 ft 24 kts 254°
2026-04-26 10:27 51.87364 -0.38075 535 ft 19 kts 201°
2026-04-26 10:27 51.87239 -0.38162 531 ft 19 kts 249°
2026-04-26 10:27 51.87185 -0.38296 527 ft 5 kts 237°
2026-04-26 10:27 51.87211 -0.38285 527 ft 8 kts 50°
2026-04-26 10:28 51.87219 -0.38248 528 ft 0 kts 74°
2026-04-26 10:28 51.87221 -0.38241 528 ft 7 kts 74°
2026-04-26 10:28 51.87291 -0.37836 538 ft 74 kts 74°
2026-04-26 10:28 51.87487 -0.36691 543 ft 134 kts 75°
2026-04-26 10:29 51.87781 -0.35077 871 ft 149 kts 78°
2026-04-26 10:29 51.88072 -0.33464 1573 ft 154 kts 77°
2026-04-26 10:29 51.88386 -0.31678 1916 ft 176 kts 76°
2026-04-26 10:29 51.88690 -0.29937 2182 ft 195 kts 76°
2026-04-26 10:30 51.88761 -0.29502 2263 ft 196 kts 81°
2026-04-26 10:30 51.89236 -0.27272 2668 ft 223 kts 56°
2026-04-26 10:31 51.90552 -0.25748 3039 ft 251 kts 16°
2026-04-26 10:31 51.92301 -0.25859 3643 ft 266 kts 338°
2026-04-26 10:31 51.93761 -0.27689 4445 ft 272 kts 303°
2026-04-26 10:31 51.94338 -0.30577 5343 ft 274 kts 269°
2026-04-26 10:32 51.94059 -0.33629 6220 ft 275 kts 255°
2026-04-26 10:32 51.93589 -0.36639 7151 ft 276 kts 255°
2026-04-26 10:32 51.93357 -0.39714 7972 ft 279 kts 278°
2026-04-26 10:32 51.94084 -0.42626 8801 ft 283 kts 302°
2026-04-26 10:33 51.95317 -0.45128 9665 ft 286 kts 311°
2026-04-26 10:33 51.96741 -0.47415 10457 ft 290 kts 316°
2026-04-26 10:33 51.98294 -0.49746 10797 ft 312 kts 316°
2026-04-26 10:33 51.99913 -0.52186 11166 ft 328 kts 315°
2026-04-26 10:34 52.01599 -0.54800 11853 ft 333 kts 314°
2026-04-26 10:34 52.03251 -0.57450 12599 ft 336 kts 313°
2026-04-26 10:34 52.04882 -0.60133 13333 ft 339 kts 313°
2026-04-26 10:34 52.06553 -0.62928 14081 ft 342 kts 312°
2026-04-26 10:35 52.08191 -0.65688 14718 ft 345 kts 312°
2026-04-26 10:35 52.09867 -0.68514 15347 ft 349 kts 312°
2026-04-26 10:35 52.11582 -0.71400 15981 ft 352 kts 313°
2026-04-26 10:35 52.13444 -0.74022 16596 ft 358 kts 323°
2026-04-26 10:36 52.15543 -0.76142 17204 ft 362 kts 327°
2026-04-26 10:36 52.17710 -0.78266 17818 ft 365 kts 327°
2026-04-26 10:36 52.19920 -0.80448 18431 ft 369 kts 326°
2026-04-26 10:36 52.22124 -0.82634 18977 ft 372 kts 326°
2026-04-26 10:37 52.24310 -0.84807 19517 ft 374 kts 326°
2026-04-26 10:37 52.26543 -0.87024 20087 ft 376 kts 326°
2026-04-26 10:37 52.28812 -0.89276 20672 ft 378 kts 326°
2026-04-26 10:37 52.31031 -0.91482 21241 ft 380 kts 326°
2026-04-26 10:38 52.33296 -0.93737 21806 ft 382 kts 326°
2026-04-26 10:38 52.35565 -0.96003 22368 ft 384 kts 326°
2026-04-26 10:38 52.37851 -0.98287 22925 ft 386 kts 326°
2026-04-26 10:38 52.40145 -1.00582 23462 ft 388 kts 326°
2026-04-26 10:39 52.42457 -1.02898 23970 ft 391 kts 326°
2026-04-26 10:39 52.44781 -1.05228 24385 ft 393 kts 326°
2026-04-26 10:39 52.47113 -1.07569 24796 ft 395 kts 326°
2026-04-26 10:39 52.49460 -1.09926 25208 ft 396 kts 326°
2026-04-26 10:40 52.51820 -1.12298 25612 ft 398 kts 325°
2026-04-26 10:40 52.54187 -1.14678 26038 ft 400 kts 325°
2026-04-26 10:40 52.56565 -1.17072 26413 ft 402 kts 325°
2026-04-26 10:40 52.58951 -1.19478 26791 ft 403 kts 325°
2026-04-26 10:41 52.61346 -1.21898 27159 ft 405 kts 325°
2026-04-26 10:41 52.63754 -1.24331 27528 ft 407 kts 325°
2026-04-26 10:41 52.66173 -1.26782 27895 ft 409 kts 325°
2026-04-26 10:41 52.68600 -1.29248 28251 ft 411 kts 325°
2026-04-26 10:42 52.71035 -1.31726 28617 ft 412 kts 325°
2026-04-26 10:42 52.73479 -1.34215 29029 ft 414 kts 324°
2026-04-26 10:42 52.75938 -1.36718 29395 ft 416 kts 324°
2026-04-26 10:42 52.78403 -1.39227 29734 ft 417 kts 324°
2026-04-26 10:43 52.80880 -1.41754 30069 ft 419 kts 324°
2026-04-26 10:43 52.83360 -1.44289 30387 ft 420 kts 324°
2026-04-26 10:43 52.85854 -1.46842 30651 ft 422 kts 324°
2026-04-26 10:43 52.88353 -1.49403 30912 ft 423 kts 324°
2026-04-26 10:44 52.90860 -1.51975 31135 ft 425 kts 324°
2026-04-26 10:44 52.93380 -1.54568 31366 ft 427 kts 324°
2026-04-26 10:44 52.95903 -1.57169 31591 ft 428 kts 324°
2026-04-26 10:44 52.98435 -1.59782 31897 ft 428 kts 324°
2026-04-26 10:45 53.00957 -1.62393 32227 ft 427 kts 324°
2026-04-26 10:45 53.03472 -1.64999 32319 ft 421 kts 324°
2026-04-26 10:45 53.08675 -1.69009 32332 ft 410 kts 335°
2026-04-26 10:46 53.14007 -1.72292 32331 ft 408 kts 335°
2026-04-26 10:46 53.19318 -1.75611 32331 ft 408 kts 335°
2026-04-26 10:47 53.24626 -1.78934 32348 ft 407 kts 335°
2026-04-26 10:47 53.29928 -1.82249 32328 ft 406 kts 335°
2026-04-26 10:48 53.35227 -1.85553 32316 ft 406 kts 335°
2026-04-26 10:48 53.40521 -1.88861 32314 ft 406 kts 335°
2026-04-26 10:49 53.45816 -1.92193 32312 ft 406 kts 335°
2026-04-26 10:49 53.51109 -1.95531 32314 ft 406 kts 335°
2026-04-26 10:50 53.55500 -1.98309 32315 ft 406 kts 335°
2026-04-26 10:50 53.61684 -2.02236 32315 ft 406 kts 335°
2026-04-26 10:51 53.69607 -2.07285 32315 ft 406 kts 335°
2026-04-26 10:52 53.74895 -2.10665 32315 ft 406 kts 334°
2026-04-26 10:52 53.80143 -2.14167 32310 ft 406 kts 333°
2026-04-26 10:53 53.85367 -2.17786 32308 ft 406 kts 333°
2026-04-26 10:53 53.90595 -2.21395 32305 ft 406 kts 333°
2026-04-26 10:54 53.98450 -2.26781 32323 ft 406 kts 333°
2026-04-26 10:54 54.03688 -2.30385 32312 ft 406 kts 333°
2026-04-26 10:55 54.08922 -2.34003 32305 ft 406 kts 333°
2026-04-26 10:55 54.13273 -2.37018 32298 ft 406 kts 333°
2026-04-26 10:56 54.19394 -2.41266 32296 ft 406 kts 333°
2026-04-26 10:56 54.24628 -2.44909 32309 ft 406 kts 333°
2026-04-26 10:57 54.29855 -2.48563 32304 ft 406 kts 333°
2026-04-26 10:57 54.35094 -2.52234 32304 ft 411 kts 333°
2026-04-26 10:58 54.40501 -2.56039 32301 ft 427 kts 333°
2026-04-26 10:58 54.46027 -2.59930 32298 ft 431 kts 333°
2026-04-26 10:59 54.51544 -2.63817 32300 ft 418 kts 333°
2026-04-26 10:59 54.56864 -2.67572 31978 ft 416 kts 332°
2026-04-26 11:00 54.59550 -2.69485 31304 ft 416 kts 332°
2026-04-26 11:00 54.62210 -2.71377 30781 ft 412 kts 332°
2026-04-26 11:00 54.64849 -2.73255 30305 ft 408 kts 332°
2026-04-26 11:00 54.67461 -2.75115 29805 ft 403 kts 332°
2026-04-26 11:01 54.70030 -2.76948 29357 ft 397 kts 332°
2026-04-26 11:01 54.72564 -2.78759 28948 ft 391 kts 332°
2026-04-26 11:01 54.75067 -2.80549 28494 ft 387 kts 332°
2026-04-26 11:01 54.77541 -2.82324 28072 ft 382 kts 333°
2026-04-26 11:02 54.79161 -2.83487 27788 ft 379 kts 333°
2026-04-26 11:02 54.82401 -2.85814 27235 ft 374 kts 333°
2026-04-26 11:02 54.84022 -2.86983 26931 ft 372 kts 333°
2026-04-26 11:02 54.86401 -2.88699 26516 ft 369 kts 333°
2026-04-26 11:03 54.88761 -2.90403 26063 ft 366 kts 333°
2026-04-26 11:03 54.91116 -2.92105 25533 ft 367 kts 333°
2026-04-26 11:03 54.93472 -2.93810 25023 ft 367 kts 334°
2026-04-26 11:03 54.95829 -2.95517 24511 ft 367 kts 334°
2026-04-26 11:04 54.98181 -2.97223 24007 ft 367 kts 334°
2026-04-26 11:04 55.00529 -2.98923 23687 ft 360 kts 334°
2026-04-26 11:04 55.02814 -3.00575 23349 ft 353 kts 334°
2026-04-26 11:04 55.05112 -3.02248 22449 ft 363 kts 334°
2026-04-26 11:05 55.07441 -3.03952 21927 ft 362 kts 334°
2026-04-26 11:05 55.09763 -3.05651 21413 ft 361 kts 334°
2026-04-26 11:05 55.12046 -3.07320 20914 ft 360 kts 334°
2026-04-26 11:05 55.14389 -3.09032 20398 ft 360 kts 334°
2026-04-26 11:06 55.16661 -3.10691 19991 ft 357 kts 334°
2026-04-26 11:06 55.18962 -3.12375 19428 ft 359 kts 334°
2026-04-26 11:06 55.21263 -3.14062 18908 ft 350 kts 334°
2026-04-26 11:06 55.23498 -3.15702 18097 ft 347 kts 334°
2026-04-26 11:07 55.25708 -3.17323 17442 ft 340 kts 334°
2026-04-26 11:07 55.27830 -3.18883 16915 ft 330 kts 334°
2026-04-26 11:07 55.30045 -3.19974 16386 ft 326 kts 349°
2026-04-26 11:07 55.32273 -3.20079 15822 ft 325 kts
2026-04-26 11:08 55.34548 -3.19708 15269 ft 323 kts
2026-04-26 11:08 55.36776 -3.19353 14738 ft 321 kts
2026-04-26 11:08 55.39000 -3.19000 14215 ft 323 kts
2026-04-26 11:08 55.41218 -3.18648 13804 ft 323 kts
2026-04-26 11:09 55.43471 -3.18294 13445 ft 320 kts
2026-04-26 11:09 55.45687 -3.17949 13067 ft 319 kts
2026-04-26 11:09 55.47861 -3.17612 12713 ft 317 kts
2026-04-26 11:09 55.50086 -3.17266 12376 ft 315 kts
2026-04-26 11:10 55.52252 -3.16928 11805 ft 311 kts
2026-04-26 11:10 55.54374 -3.16593 11153 ft 309 kts
2026-04-26 11:10 55.56530 -3.16252 10519 ft 306 kts
2026-04-26 11:10 55.58644 -3.15918 9876 ft 303 kts
2026-04-26 11:11 55.60733 -3.15587 9218 ft 300 kts
2026-04-26 11:11 55.62771 -3.15263 8594 ft 296 kts
2026-04-26 11:11 55.64828 -3.14937 7988 ft 290 kts
2026-04-26 11:11 55.66820 -3.14623 7476 ft 284 kts
2026-04-26 11:12 55.68729 -3.14324 7210 ft 268 kts
2026-04-26 11:12 55.70556 -3.14036 6785 ft 259 kts
2026-04-26 11:12 55.72311 -3.13743 6999 ft 258 kts
2026-04-26 11:12 55.74119 -3.13349 6728 ft 261 kts
2026-04-26 11:13 55.75877 -3.12897 6495 ft 258 kts
2026-04-26 11:13 55.77667 -3.12421 6268 ft 256 kts
2026-04-26 11:13 55.79432 -3.11957 6054 ft 255 kts
2026-04-26 11:13 55.81164 -3.11511 5831 ft 255 kts
2026-04-26 11:14 55.82912 -3.11065 5632 ft 254 kts
2026-04-26 11:14 55.84658 -3.10622 5422 ft 253 kts
2026-04-26 11:14 55.86394 -3.10184 5212 ft 252 kts
2026-04-26 11:14 55.88124 -3.09748 5000 ft 251 kts
2026-04-26 11:15 55.89851 -3.09313 4785 ft 250 kts
2026-04-26 11:15 55.91572 -3.08876 4577 ft 249 kts
2026-04-26 11:15 55.93289 -3.08440 4369 ft 249 kts
2026-04-26 11:15 55.95000 -3.08008 4163 ft 248 kts
2026-04-26 11:16 55.96710 -3.07575 3954 ft 247 kts
2026-04-26 11:16 55.98366 -3.07153 3855 ft 235 kts
2026-04-26 11:16 55.99973 -3.06741 3750 ft 232 kts
2026-04-26 11:16 56.01568 -3.06494 3644 ft 228 kts 349°
2026-04-26 11:17 56.02953 -3.07645 3425 ft 217 kts 310°
2026-04-26 11:17 56.03593 -3.09932 3305 ft 201 kts 274°
2026-04-26 11:17 56.03392 -3.12303 3141 ft 192 kts 242°
2026-04-26 11:17 56.02722 -3.14350 2914 ft 190 kts 238°
2026-04-26 11:18 56.02039 -3.16364 2663 ft 189 kts 238°
2026-04-26 11:18 56.01363 -3.18372 2411 ft 189 kts 238°
2026-04-26 11:18 56.00698 -3.20350 2182 ft 181 kts 238°
2026-04-26 11:18 56.00066 -3.22228 1916 ft 172 kts 238°
2026-04-26 11:19 55.99472 -3.23994 1701 ft 159 kts 238°
2026-04-26 11:19 55.98929 -3.25607 1475 ft 145 kts 238°
2026-04-26 11:19 55.98420 -3.27115 1283 ft 139 kts 238°
2026-04-26 11:19 55.97923 -3.28590 1089 ft 139 kts 239°
2026-04-26 11:20 55.97425 -3.30063 894 ft 139 kts 239°
2026-04-26 11:20 55.97090 -3.31043 766 ft 139 kts 239°
2026-04-26 11:20 55.96418 -3.33032 501 ft 141 kts 239°
2026-04-26 11:20 55.95916 -3.34521 303 ft 140 kts 240°
2026-04-26 11:21 55.95423 -3.36012 124 ft 139 kts 239°
2026-04-26 11:21 55.94970 -3.37341 107 ft 104 kts 238°
2026-04-26 11:21 55.94719 -3.38061 113 ft 10 kts 225°
2026-04-26 11:21 55.94630 -3.37988 112 ft 12 kts 153°
2026-04-26 11:22 55.94603 -3.37957 111 ft 4 kts 143°
2026-04-26 11:22 55.94589 -3.37921 112 ft 3 kts 114°
2026-04-26 11:22 55.94588 -3.37890 112 ft 2 kts 81°
2026-04-26 11:22 55.94609 -3.37827 113 ft 14 kts 59°
2026-04-26 11:23 55.94676 -3.37629 112 ft 21 kts 62°
2026-04-26 11:23 55.94757 -3.37388 109 ft 24 kts 58°
2026-04-26 11:23 55.94850 -3.37125 105 ft 22 kts 58°
2026-04-26 11:23 55.94924 -3.36890 105 ft 18 kts 77°
2026-04-26 11:24 55.94910 -3.36700 107 ft 17 kts 62°
2026-04-26 11:24 55.94988 -3.36476 107 ft 23 kts 58°
2026-04-26 11:24 55.95021 -3.36362 107 ft 7 kts 91°
2026-04-26 11:24 55.94991 -3.36313 107 ft 5 kts 149°
2026-04-26 11:25 55.94967 -3.36288 107 ft 0 kts 149°